Location: Unspecified
(42.3650°N, 71.1030°W)
Time: 12:59:44
(UTC+00:00)

Courier 1B - Pass Details

Date: 04 July 2024
Orbit: 962 x 1209 km, 28.3° (Epoch: 25 July)

Event Time Altitude Azimuth Distance (km) Brightness Sun altitude
Rises 05:31:20 0° 251° (WSW) 3,685 - -24.1°
Reaches altitude 10° 05:36:22 10° 219° (SW) 2,785 - -23.9°
Maximum altitude 05:38:12 11° 203° (SSW) 2,719 - -23.8°
Drops below altitude 10° 05:40:03 10° 187° (S) 2,827 - -23.7°
Sets 05:45:18 0° 154° (SSE) 3,849 - -23.5°
